• In Portugal
  • List of Countries
  • For 7 days
  • Water Temperature
  • Satellite Maps
  • Weather Map
  • Weather Widgets
  • user-avatar
    Login

    Hourly Weather Barisal

    Today, 16 July, Monday

    Time Temperature Precipitation Wind Pressure Humidity
    00:00 +30°C° 0 mm 3 mps 748 mmHg 84%
    01:00 +30°C° 0.6 mm 4 mps 748 mmHg 84%
    02:00 +30°C° 0.6 mm 4 mps 748 mmHg 84%
    03:00 +30°C° 0.6 mm 5 mps 747 mmHg 85%
    04:00 +29°C° 0.5 mm 5 mps 747 mmHg 85%
    05:00 +29°C° 0.5 mm 5 mps 747 mmHg 85%
    06:00 +30°C° 0 mm 4 mps 747 mmHg 85%
    07:00 +32°C° 0.8 mm 5 mps 748 mmHg 81%
    08:00 +32°C° 0.8 mm 7 mps 748 mmHg 77%
    09:00 +33°C° 0.8 mm 8 mps 748 mmHg 73%
    10:00 +33°C° 1.1 mm 8 mps 748 mmHg 72%
    11:00 +34°C° 1.1 mm 8 mps 748 mmHg 72%
    12:00 +34°C° 1.1 mm 8 mps 747 mmHg 72%
    13:00 +34°C° 0.9 mm 8 mps 747 mmHg 72%
    14:00 +34°C° 0.9 mm 8 mps 747 mmHg 72%
    15:00 +34°C° 0.9 mm 7 mps 746 mmHg 72%
    16:00 +33°C° 0.4 mm 7 mps 746 mmHg 73%
    17:00 +33°C° 0.4 mm 6 mps 746 mmHg 75%
    18:00 +33°C° 0.4 mm 6 mps 746 mmHg 76%
    19:00 +32°C° 0.2 mm 6 mps 746 mmHg 79%
    20:00 +32°C° 0.2 mm 5 mps 747 mmHg 82%
    21:00 +30°C° 0.2 mm 5 mps 747 mmHg 85%
    22:00 +30°C° 0.5 mm 5 mps 748 mmHg 85%
    23:00 +30°C° 0.5 mm 5 mps 748 mmHg 86%

    Tomorrow, 17 July, Tuesday

    Time Temperature Precipitation Wind Pressure Humidity
    00:00 +30°C° 0.5 mm 4 mps 748 mmHg 86%
    01:00 +29°C° 0.9 mm 4 mps 748 mmHg 87%
    02:00 +29°C° 0.9 mm 4 mps 747 mmHg 87%
    03:00 +29°C° 0.9 mm 4 mps 747 mmHg 88%
    04:00 +29°C° 0.2 mm 4 mps 747 mmHg 88%
    05:00 +29°C° 0.2 mm 4 mps 747 mmHg 88%
    06:00 +29°C° 0.2 mm 3 mps 747 mmHg 88%
    07:00 +32°C° 0.2 mm 4 mps 748 mmHg 82%
    08:00 +33°C° 0.2 mm 4 mps 748 mmHg 76%
    09:00 +34°C° 0.2 mm 5 mps 748 mmHg 70%
    10:00 +35°C° 0.3 mm 5 mps 748 mmHg 67%
    11:00 +35°C° 0.3 mm 6 mps 748 mmHg 65%
    12:00 +36°C° 0.3 mm 6 mps 748 mmHg 62%
    13:00 +36°C° 0.1 mm 6 mps 747 mmHg 62%
    14:00 +36°C° 0.1 mm 6 mps 747 mmHg 61%
    15:00 +36°C° 0.1 mm 6 mps 746 mmHg 61%
    16:00 +35°C° 0 mm 6 mps 746 mmHg 64%
    17:00 +35°C° 0 mm 6 mps 746 mmHg 67%
    18:00 +34°C° 0 mm 6 mps 746 mmHg 70%
    19:00 +33°C° 0 mm 5 mps 747 mmHg 74%
    20:00 +33°C° 0 mm 5 mps 747 mmHg 77%
    21:00 +32°C° 0 mm 5 mps 748 mmHg 80%
    22:00 +32°C° 0 mm 4 mps 748 mmHg 81%
    23:00 +32°C° 0 mm 4 mps 748 mmHg 83%

    Day after tomorrow, 18 July, Wednesday

    Time Temperature Precipitation Wind Pressure Humidity
    00:00 +30°C° 0 mm 4 mps 748 mmHg 84%
    01:00 +30°C° 0.5 mm 3 mps 748 mmHg 85%
    02:00 +30°C° 0.5 mm 3 mps 748 mmHg 86%
    03:00 +30°C° 0.5 mm 3 mps 747 mmHg 87%
    04:00 +30°C° 0.7 mm 3 mps 747 mmHg 87%
    05:00 +30°C° 0.7 mm 3 mps 748 mmHg 87%
    06:00 +30°C° 0.7 mm 3 mps 748 mmHg 86%
    07:00 +31°C° 0.3 mm 3 mps 748 mmHg 80%
    08:00 +33°C° 0.3 mm 3 mps 748 mmHg 73%
    09:00 +35°C° 0.3 mm 4 mps 749 mmHg 66%
    10:00 +35°C° 0 mm 4 mps 748 mmHg 64%
    11:00 +36°C° 0 mm 4 mps 748 mmHg 61%
    12:00 +37°C° 0 mm 4 mps 748 mmHg 59%
    13:00 +37°C° 0 mm 4 mps 747 mmHg 58%
    14:00 +37°C° 0 mm 5 mps 747 mmHg 58%
    15:00 +37°C° 0 mm 5 mps 746 mmHg 58%
    16:00 +36°C° 0 mm 4 mps 746 mmHg 61%
    17:00 +36°C° 0 mm 4 mps 746 mmHg 65%
    18:00 +35°C° 0 mm 4 mps 746 mmHg 68%
    19:00 +34°C° 0 mm 4 mps 746 mmHg 71%
    20:00 +33°C° 0 mm 4 mps 747 mmHg 74%
    21:00 +33°C° 0 mm 3 mps 748 mmHg 77%
    22:00 +31°C° 0 mm 3 mps 748 mmHg 79%
    23:00 +31°C° 0 mm 3 mps 748 mmHg 80%

    19 July, Thursday

    Time Temperature Precipitation Wind Pressure Humidity
    00:00 +31°C° 0 mm 3 mps 748 mmHg 82%
    01:00 +31°C° 0 mm 3 mps 748 mmHg 83%
    02:00 +31°C° 0 mm 2 mps 747 mmHg 84%
    03:00 +31°C° 0 mm 2 mps 747 mmHg 85%
    04:00 +30°C° 0.1 mm 2 mps 747 mmHg 86%
    05:00 +30°C° 0.1 mm 2 mps 747 mmHg 87%
    06:00 +30°C° 0.1 mm 2 mps 747 mmHg 87%
    07:00 +31°C° 0 mm 2 mps 747 mmHg 81%
    08:00 +32°C° 0 mm 2 mps 748 mmHg 76%
    09:00 +34°C° 0 mm 3 mps 748 mmHg 70%
    10:00 +35°C° 0 mm 3 mps 748 mmHg 66%
    11:00 +36°C° 0 mm 3 mps 748 mmHg 61%
    12:00 +37°C° 0 mm 3 mps 747 mmHg 57%
    13:00 +37°C° 0 mm 3 mps 747 mmHg 58%
    14:00 +37°C° 0 mm 3 mps 746 mmHg 58%
    15:00 +36°C° 0 mm 3 mps 746 mmHg 59%
    16:00 +36°C° 0 mm 3 mps 746 mmHg 61%
    17:00 +35°C° 0 mm 4 mps 746 mmHg 64%
    18:00 +35°C° 0 mm 4 mps 746 mmHg 67%
    19:00 +34°C° 0 mm 3 mps 746 mmHg 71%
    20:00 +33°C° 0 mm 3 mps 747 mmHg 74%
    21:00 +31°C° 0 mm 3 mps 748 mmHg 78%
    22:00 +31°C° 0 mm 3 mps 748 mmHg 80%
    23:00 +31°C° 0 mm 3 mps 748 mmHg 81%

    20 July, Friday

    Time Temperature Precipitation Wind Pressure Humidity
    00:00 +31°C° 0 mm 2 mps 748 mmHg 83%
    01:00 +31°C° 0.1 mm 2 mps 747 mmHg 84%
    02:00 +30°C° 0.1 mm 2 mps 747 mmHg 85%
    03:00 +30°C° 0.1 mm 2 mps 746 mmHg 86%
    04:00 +30°C° 0.1 mm 2 mps 747 mmHg 86%
    05:00 +30°C° 0.1 mm 2 mps 747 mmHg 87%
    06:00 +30°C° 0.1 mm 1 mps 747 mmHg 87%
    07:00 +31°C° 0 mm 2 mps 747 mmHg 82%
    08:00 +32°C° 0 mm 2 mps 748 mmHg 77%
    09:00 +34°C° 0 mm 2 mps 748 mmHg 72%
    10:00 +34°C° 0 mm 2 mps 748 mmHg 68%
    11:00 +35°C° 0 mm 3 mps 747 mmHg 64%
    12:00 +36°C° 0 mm 3 mps 747 mmHg 61%
    13:00 +36°C° 0 mm 3 mps 747 mmHg 61%
    14:00 +36°C° 0 mm 3 mps 746 mmHg 61%
    15:00 +36°C° 0 mm 4 mps 745 mmHg 61%
    16:00 +35°C° 0 mm 4 mps 746 mmHg 63%
    17:00 +35°C° 0 mm 4 mps 746 mmHg 66%
    18:00 +34°C° 0 mm 4 mps 746 mmHg 68%
    19:00 +34°C° 0 mm 4 mps 746 mmHg 72%
    20:00 +33°C° 0 mm 4 mps 747 mmHg 75%
    21:00 +31°C° 0 mm 3 mps 747 mmHg 78%
    22:00 +31°C° 0.2 mm 3 mps 747 mmHg 80%
    23:00 +31°C° 0.2 mm 3 mps 747 mmHg 81%

    21 July, Saturday

    Time Temperature Precipitation Wind Pressure Humidity
    00:00 +31°C° 0.2 mm 2 mps 747 mmHg 82%
    01:00 +30°C° 0.2 mm 2 mps 747 mmHg 84%
    02:00 +30°C° 0.2 mm 2 mps 747 mmHg 85%
    03:00 +30°C° 0.2 mm 2 mps 746 mmHg 86%
    04:00 +30°C° 0.1 mm 2 mps 746 mmHg 86%
    05:00 +30°C° 0.1 mm 2 mps 746 mmHg 87%
    06:00 +30°C° 0.1 mm 3 mps 747 mmHg 87%
    07:00 +31°C° 0 mm 3 mps 747 mmHg 80%
    08:00 +33°C° 0 mm 3 mps 747 mmHg 73%
    09:00 +34°C° 0 mm 3 mps 747 mmHg 66%
    10:00 +36°C° 0 mm 3 mps 747 mmHg 62%
    11:00 +37°C° 0 mm 3 mps 747 mmHg 58%
    12:00 +38°C° 0 mm 4 mps 747 mmHg 53%
    13:00 +38°C° 0.5 mm 4 mps 746 mmHg 54%
    14:00 +38°C° 0.5 mm 4 mps 746 mmHg 54%
    15:00 +37°C° 0.5 mm 4 mps 745 mmHg 55%
    16:00 +37°C° 0.2 mm 4 mps 745 mmHg 58%
    17:00 +36°C° 0.2 mm 4 mps 745 mmHg 62%
    18:00 +35°C° 0.2 mm 4 mps 745 mmHg 66%
    19:00 +34°C° 0 mm 3 mps 746 mmHg 69%
    20:00 +33°C° 0 mm 3 mps 746 mmHg 73%
    21:00 +32°C° 0 mm 2 mps 747 mmHg 76%
    22:00 +31°C° 0.2 mm 2 mps 747 mmHg 77%
    23:00 +31°C° 0.2 mm 2 mps 747 mmHg 79%
    Show more